Year,Month,Day,Hour,Minute,Value (Times are PST for temperature in C)
2010,01,23,00,00,3.20
2010,01,23,00,01,3.20
2010,01,23,00,02,3.20
2010,01,23,00,03,3.20
2010,01,23,00,04,3.30
2010,01,23,00,05,3.30
2010,01,23,00,06,3.30
2010,01,23,00,07,3.30
2010,01,23,00,08,3.40
2010,01,23,00,09,3.40
2010,01,23,00,10,3.40
2010,01,23,00,11,3.40
2010,01,23,00,12,3.40
2010,01,23,00,13,3.40
2010,01,23,00,14,3.40
2010,01,23,00,15,3.40
2010,01,23,00,16,3.40
2010,01,23,00,17,3.40
2010,01,23,00,18,3.40
2010,01,23,00,19,3.40
2010,01,23,00,20,3.40
2010,01,23,00,21,3.40
2010,01,23,00,22,3.30
2010,01,23,00,23,3.30
2010,01,23,00,24,3.30
2010,01,23,00,25,3.30
2010,01,23,00,26,3.30
2010,01,23,00,27,3.30
2010,01,23,00,28,3.30
2010,01,23,00,29,3.30
2010,01,23,00,30,3.30
2010,01,23,00,31,3.30
2010,01,23,00,32,3.30
2010,01,23,00,33,3.30
2010,01,23,00,34,3.30
2010,01,23,00,35,3.30
2010,01,23,00,36,3.20
2010,01,23,00,37,3.20
2010,01,23,00,38,3.20
2010,01,23,00,39,3.20
2010,01,23,00,40,3.10
2010,01,23,00,41,3.10
2010,01,23,00,42,3.10
2010,01,23,00,43,3.10
2010,01,23,00,44,3.10
2010,01,23,00,45,3.10
2010,01,23,00,46,3.10
2010,01,23,00,47,3.10
2010,01,23,00,48,3.10
2010,01,23,00,49,3.10
2010,01,23,00,50,3.10
2010,01,23,00,51,3.10
2010,01,23,00,52,3.10
2010,01,23,00,53,3.10
2010,01,23,00,54,3.10
2010,01,23,00,55,3.10
2010,01,23,00,56,3.10
2010,01,23,00,57,3.10
2010,01,23,00,58,3.10
2010,01,23,00,59,3.10
2010,01,23,01,00,3.10
2010,01,23,01,01,3.10
2010,01,23,01,02,3.10
2010,01,23,01,03,3.10
2010,01,23,01,04,3.10
2010,01,23,01,05,3.10
2010,01,23,01,06,3.10
2010,01,23,01,07,3.00
2010,01,23,01,08,2.90
2010,01,23,01,09,2.90
2010,01,23,01,10,2.90
2010,01,23,01,11,2.90
2010,01,23,01,12,2.90
2010,01,23,01,13,2.90
2010,01,23,01,14,2.90
2010,01,23,01,15,2.90
2010,01,23,01,16,2.90
2010,01,23,01,17,2.90
2010,01,23,01,18,2.90
2010,01,23,01,19,2.90
2010,01,23,01,20,2.90
2010,01,23,01,21,2.90
2010,01,23,01,22,2.90
2010,01,23,01,23,2.90
2010,01,23,01,24,2.90
2010,01,23,01,25,2.90
2010,01,23,01,26,2.90
2010,01,23,01,27,2.80
2010,01,23,01,28,2.80
2010,01,23,01,29,2.80
2010,01,23,01,30,2.80
2010,01,23,01,31,2.80
2010,01,23,01,32,2.80
2010,01,23,01,33,2.80
2010,01,23,01,34,2.80
2010,01,23,01,35,2.80
2010,01,23,01,36,2.70
2010,01,23,01,37,2.70
2010,01,23,01,38,2.70
2010,01,23,01,39,2.70
2010,01,23,01,40,2.70
2010,01,23,01,41,2.70
2010,01,23,01,42,2.70
2010,01,23,01,43,2.70
2010,01,23,01,44,2.70
2010,01,23,01,45,2.70
2010,01,23,01,46,2.70
2010,01,23,01,47,2.70
2010,01,23,01,48,2.70
2010,01,23,01,49,2.70
2010,01,23,01,50,2.70
2010,01,23,01,51,2.70
2010,01,23,01,52,2.80
2010,01,23,01,53,2.80
2010,01,23,01,54,2.80
2010,01,23,01,55,2.80
2010,01,23,01,56,2.80
2010,01,23,01,57,2.80
2010,01,23,01,58,2.80
2010,01,23,01,59,2.80
2010,01,23,02,00,2.80
2010,01,23,02,01,2.80
2010,01,23,02,02,2.80
2010,01,23,02,03,2.80
2010,01,23,02,04,2.80
2010,01,23,02,05,2.80
2010,01,23,02,06,2.80
2010,01,23,02,07,2.80
2010,01,23,02,08,2.70
2010,01,23,02,09,2.70
2010,01,23,02,10,2.70
2010,01,23,02,11,2.70
2010,01,23,02,12,2.70
2010,01,23,02,13,2.70
2010,01,23,02,14,2.70
2010,01,23,02,15,2.70
2010,01,23,02,16,2.70
2010,01,23,02,17,2.70
2010,01,23,02,18,2.70
2010,01,23,02,19,2.70
2010,01,23,02,20,2.70
2010,01,23,02,21,2.70
2010,01,23,02,22,2.70
2010,01,23,02,23,2.60
2010,01,23,02,24,2.60
2010,01,23,02,25,2.60
2010,01,23,02,26,2.60
2010,01,23,02,27,2.70
2010,01,23,02,28,2.70
2010,01,23,02,29,2.70
2010,01,23,02,30,2.70
2010,01,23,02,31,2.70
2010,01,23,02,32,2.70
2010,01,23,02,33,2.70
2010,01,23,02,34,2.70
2010,01,23,02,35,2.70
2010,01,23,02,36,2.70
2010,01,23,02,37,2.70
2010,01,23,02,38,2.70
2010,01,23,02,39,2.70
2010,01,23,02,40,2.70
2010,01,23,02,41,2.70
2010,01,23,02,42,2.70
2010,01,23,02,43,2.60
2010,01,23,02,44,2.60
2010,01,23,02,45,2.60
2010,01,23,02,46,2.60
2010,01,23,02,47,2.70
2010,01,23,02,48,2.70
2010,01,23,02,49,2.70
2010,01,23,02,50,2.70
2010,01,23,02,51,2.70
2010,01,23,02,52,2.70
2010,01,23,02,53,2.80
2010,01,23,02,54,2.80
2010,01,23,02,55,2.80
2010,01,23,02,56,2.80
2010,01,23,02,57,2.80
2010,01,23,02,58,2.80
2010,01,23,02,59,2.80
2010,01,23,03,00,2.80
2010,01,23,03,01,2.80
2010,01,23,03,02,2.80
2010,01,23,03,03,2.80
2010,01,23,03,04,2.70
2010,01,23,03,05,2.70
2010,01,23,03,06,2.70
2010,01,23,03,07,2.70
2010,01,23,03,08,2.70
2010,01,23,03,09,2.70
2010,01,23,03,10,2.70
2010,01,23,03,11,2.60
2010,01,23,03,12,2.60
2010,01,23,03,13,2.50
2010,01,23,03,14,2.50
2010,01,23,03,15,2.50
2010,01,23,03,16,2.50
2010,01,23,03,17,2.50
2010,01,23,03,18,2.50
2010,01,23,03,19,2.50
2010,01,23,03,20,2.50
2010,01,23,03,21,2.50
2010,01,23,03,22,2.50
2010,01,23,03,23,2.50
2010,01,23,03,24,2.50
2010,01,23,03,25,2.50
2010,01,23,03,26,2.50
2010,01,23,03,27,2.50
2010,01,23,03,28,2.40
2010,01,23,03,29,2.40
2010,01,23,03,30,2.40
2010,01,23,03,31,2.40
2010,01,23,03,32,2.40
2010,01,23,03,33,2.40
2010,01,23,03,34,2.40
2010,01,23,03,35,2.40
2010,01,23,03,36,2.40
2010,01,23,03,37,2.50
2010,01,23,03,38,2.50
2010,01,23,03,39,2.50
2010,01,23,03,40,2.50
2010,01,23,03,41,2.50
2010,01,23,03,42,2.50
2010,01,23,03,43,2.50
2010,01,23,03,44,2.60
2010,01,23,03,45,2.60
2010,01,23,03,46,2.60
2010,01,23,03,47,2.60
2010,01,23,03,48,2.60
2010,01,23,03,49,2.50
2010,01,23,03,50,2.50
2010,01,23,03,51,2.50
2010,01,23,03,52,2.50
2010,01,23,03,53,2.50
2010,01,23,03,54,2.50
2010,01,23,03,55,2.60
2010,01,23,03,56,2.60
2010,01,23,03,57,2.60
2010,01,23,03,58,2.60
2010,01,23,03,59,2.60
2010,01,23,04,00,2.70
2010,01,23,04,01,2.70
2010,01,23,04,02,2.70
2010,01,23,04,03,2.70
2010,01,23,04,04,2.70
2010,01,23,04,05,2.70
2010,01,23,04,06,2.70
2010,01,23,04,07,2.70
2010,01,23,04,08,2.70
2010,01,23,04,09,2.70
2010,01,23,04,10,2.70
2010,01,23,04,11,2.70
2010,01,23,04,12,2.70
2010,01,23,04,13,2.70
2010,01,23,04,14,2.70
2010,01,23,04,15,2.70
2010,01,23,04,16,2.70
2010,01,23,04,17,2.80
2010,01,23,04,18,2.80
2010,01,23,04,19,2.80
2010,01,23,04,20,2.80
2010,01,23,04,21,2.80
2010,01,23,04,22,2.80
2010,01,23,04,23,2.80
2010,01,23,04,24,2.80
2010,01,23,04,25,2.80
2010,01,23,04,26,2.80
2010,01,23,04,27,2.80
2010,01,23,04,28,2.90
2010,01,23,04,29,2.90
2010,01,23,04,30,2.90
2010,01,23,04,31,2.90
2010,01,23,04,32,2.90
2010,01,23,04,33,2.90
2010,01,23,04,34,2.80
2010,01,23,04,35,2.80
2010,01,23,04,36,2.80
2010,01,23,04,37,2.80
2010,01,23,04,38,2.80
2010,01,23,04,39,2.80
2010,01,23,04,40,2.80
2010,01,23,04,41,2.80
2010,01,23,04,42,2.90
2010,01,23,04,43,2.90
2010,01,23,04,44,2.90
2010,01,23,04,45,2.90
2010,01,23,04,46,2.90
2010,01,23,04,47,2.90
2010,01,23,04,48,2.90
2010,01,23,04,49,2.90
2010,01,23,04,50,2.90
2010,01,23,04,51,3.10
2010,01,23,04,52,3.10
2010,01,23,04,53,3.10
2010,01,23,04,54,3.10
2010,01,23,04,55,3.10
2010,01,23,04,56,3.10
2010,01,23,04,57,3.10
2010,01,23,04,58,3.10
2010,01,23,04,59,3.10
2010,01,23,05,00,3.10
2010,01,23,05,01,3.10
2010,01,23,05,02,3.10
2010,01,23,05,03,3.10
2010,01,23,05,04,3.10
2010,01,23,05,05,3.10
2010,01,23,05,06,3.10
2010,01,23,05,07,3.20
2010,01,23,05,08,3.20
2010,01,23,05,09,3.20
2010,01,23,05,10,3.20
2010,01,23,05,11,3.20
2010,01,23,05,12,3.20
2010,01,23,05,13,3.20
2010,01,23,05,14,3.20
2010,01,23,05,15,3.20
2010,01,23,05,16,3.20
2010,01,23,05,17,3.20
2010,01,23,05,18,3.20
2010,01,23,05,19,3.20
2010,01,23,05,20,3.10
2010,01,23,05,21,3.10
2010,01,23,05,22,3.10
2010,01,23,05,23,3.10
2010,01,23,05,24,3.20
2010,01,23,05,25,3.20
2010,01,23,05,26,3.20
2010,01,23,05,27,3.20
2010,01,23,05,28,3.20
2010,01,23,05,29,3.20
2010,01,23,05,30,3.20
2010,01,23,05,31,3.20
2010,01,23,05,32,3.20
2010,01,23,05,33,3.20
2010,01,23,05,34,3.20
2010,01,23,05,35,3.20
2010,01,23,05,36,3.20
2010,01,23,05,37,3.30
2010,01,23,05,38,3.20
2010,01,23,05,39,3.20
2010,01,23,05,40,3.20
2010,01,23,05,41,3.20
2010,01,23,05,42,3.20
2010,01,23,05,43,3.20
2010,01,23,05,44,3.20
2010,01,23,05,45,3.10
2010,01,23,05,46,3.10
2010,01,23,05,47,3.10
2010,01,23,05,48,3.10
2010,01,23,05,49,3.10
2010,01,23,05,50,3.10
2010,01,23,05,51,3.10
2010,01,23,05,52,3.10
2010,01,23,05,53,3.10
2010,01,23,05,54,3.10
2010,01,23,05,55,3.10
2010,01,23,05,56,3.10
2010,01,23,05,57,3.10
2010,01,23,05,58,3.10
2010,01,23,05,59,3.10
2010,01,23,06,00,3.10
2010,01,23,06,01,3.10
2010,01,23,06,02,3.10
2010,01,23,06,03,3.10
2010,01,23,06,04,3.10
2010,01,23,06,05,3.20
2010,01,23,06,06,3.20
2010,01,23,06,07,3.20
2010,01,23,06,08,3.20
2010,01,23,06,09,3.20
2010,01,23,06,10,3.30
2010,01,23,06,11,3.30
2010,01,23,06,12,3.20
2010,01,23,06,13,3.20
2010,01,23,06,14,3.20
2010,01,23,06,15,3.30
2010,01,23,06,16,3.30
2010,01,23,06,17,3.30
2010,01,23,06,18,3.30
2010,01,23,06,19,3.30
2010,01,23,06,20,3.30
2010,01,23,06,21,3.30
2010,01,23,06,22,3.30
2010,01,23,06,23,3.30
2010,01,23,06,24,3.30
2010,01,23,06,25,3.20
2010,01,23,06,26,3.30
2010,01,23,06,27,3.30
2010,01,23,06,28,3.30
2010,01,23,06,29,3.20
2010,01,23,06,30,3.20
2010,01,23,06,31,3.30
2010,01,23,06,32,3.30
2010,01,23,06,33,3.30
2010,01,23,06,34,3.30
2010,01,23,06,35,3.20
2010,01,23,06,36,3.20
2010,01,23,06,37,3.20
2010,01,23,06,38,3.20
2010,01,23,06,39,3.20
2010,01,23,06,40,3.20
2010,01,23,06,41,3.20
2010,01,23,06,42,3.20
2010,01,23,06,43,3.30
2010,01,23,06,44,3.30
2010,01,23,06,45,3.30
2010,01,23,06,46,3.30
2010,01,23,06,47,3.30
2010,01,23,06,48,3.30
2010,01,23,06,49,3.20
2010,01,23,06,50,3.20
2010,01,23,06,51,3.20
2010,01,23,06,52,3.30
2010,01,23,06,53,3.30
2010,01,23,06,54,3.30
2010,01,23,06,55,3.30
2010,01,23,06,56,3.30
2010,01,23,06,57,3.30
2010,01,23,06,58,3.30
2010,01,23,06,59,3.30
2010,01,23,07,00,3.30
2010,01,23,07,01,3.30
2010,01,23,07,02,3.30
2010,01,23,07,03,3.30
2010,01,23,07,04,3.30
2010,01,23,07,05,3.30
2010,01,23,07,06,3.30
2010,01,23,07,07,3.30
2010,01,23,07,08,3.30
2010,01,23,07,09,3.30
2010,01,23,07,10,3.20
2010,01,23,07,11,3.20
2010,01,23,07,12,3.20
2010,01,23,07,13,3.20
2010,01,23,07,14,3.20
2010,01,23,07,15,3.30
2010,01,23,07,16,3.30
2010,01,23,07,17,3.20
2010,01,23,07,18,3.20
2010,01,23,07,19,3.20
2010,01,23,07,20,3.20
2010,01,23,07,21,3.20
2010,01,23,07,22,3.20
2010,01,23,07,23,3.20
2010,01,23,07,24,3.20
2010,01,23,07,25,3.30
2010,01,23,07,26,3.30
2010,01,23,07,27,3.30
2010,01,23,07,28,3.30
2010,01,23,07,29,3.20
2010,01,23,07,30,3.20
2010,01,23,07,31,3.20
2010,01,23,07,32,3.20
2010,01,23,07,33,3.30
2010,01,23,07,34,3.30
2010,01,23,07,35,3.30
2010,01,23,07,36,3.30
2010,01,23,07,37,3.30
2010,01,23,07,38,3.30
2010,01,23,07,39,3.30
2010,01,23,07,40,3.30
2010,01,23,07,41,3.30
2010,01,23,07,42,3.30
2010,01,23,07,43,3.30
2010,01,23,07,44,3.30
2010,01,23,07,45,3.30
2010,01,23,07,46,3.30
2010,01,23,07,47,3.30
2010,01,23,07,48,3.30
2010,01,23,07,49,3.30
2010,01,23,07,50,3.30
2010,01,23,07,51,3.30
2010,01,23,07,52,3.20
2010,01,23,07,53,3.20
2010,01,23,07,54,3.20
2010,01,23,07,55,3.20
2010,01,23,07,56,3.20
2010,01,23,07,57,3.20
2010,01,23,07,58,3.20
2010,01,23,07,59,3.20
2010,01,23,08,00,3.20
2010,01,23,08,01,3.20
2010,01,23,08,02,3.30
2010,01,23,08,03,3.30
2010,01,23,08,04,3.30
2010,01,23,08,05,3.30
2010,01,23,08,06,3.30
2010,01,23,08,07,3.30
2010,01,23,08,08,3.30
2010,01,23,08,09,3.30
2010,01,23,08,10,3.20
2010,01,23,08,11,3.20
2010,01,23,08,12,3.20
2010,01,23,08,13,3.20
2010,01,23,08,14,3.20
2010,01,23,08,15,3.20
2010,01,23,08,16,3.20
2010,01,23,08,17,3.20
2010,01,23,08,18,3.20
2010,01,23,08,19,3.20
2010,01,23,08,20,3.20
2010,01,23,08,21,3.20
2010,01,23,08,22,3.20
2010,01,23,08,23,3.20
2010,01,23,08,24,3.30
2010,01,23,08,25,3.30
2010,01,23,08,26,3.30
2010,01,23,08,27,3.30
2010,01,23,08,28,3.30
2010,01,23,08,29,3.30
2010,01,23,08,30,3.30
2010,01,23,08,31,3.30
2010,01,23,08,32,3.30
2010,01,23,08,33,3.30
2010,01,23,08,34,3.30
2010,01,23,08,35,3.30
2010,01,23,08,36,3.30
2010,01,23,08,37,3.30
2010,01,23,08,38,3.30
2010,01,23,08,39,3.20
2010,01,23,08,40,3.20
2010,01,23,08,41,3.20
2010,01,23,08,42,3.20
2010,01,23,08,43,3.20
2010,01,23,08,44,3.20
2010,01,23,08,45,3.20
2010,01,23,08,46,3.20
2010,01,23,08,47,3.20
2010,01,23,08,48,3.20
2010,01,23,08,49,3.30
2010,01,23,08,50,3.30
2010,01,23,08,51,3.30
2010,01,23,08,52,3.30
2010,01,23,08,53,3.30
2010,01,23,08,54,3.30
2010,01,23,08,55,3.30
2010,01,23,08,56,3.40
2010,01,23,08,57,3.40
2010,01,23,08,58,3.50
2010,01,23,08,59,3.50
2010,01,23,09,00,3.60
2010,01,23,09,01,3.60
2010,01,23,09,02,3.70
2010,01,23,09,03,3.70
2010,01,23,09,04,3.70
2010,01,23,09,05,3.80
2010,01,23,09,06,3.80
2010,01,23,09,07,3.80
2010,01,23,09,08,3.80
2010,01,23,09,09,3.90
2010,01,23,09,10,3.90
2010,01,23,09,11,4.00
2010,01,23,09,12,4.00
2010,01,23,09,13,4.10
2010,01,23,09,14,4.20
2010,01,23,09,15,4.20
2010,01,23,09,16,4.30
2010,01,23,09,17,4.30
2010,01,23,09,18,4.40
2010,01,23,09,19,4.40
2010,01,23,09,20,4.50
2010,01,23,09,21,4.50
2010,01,23,09,22,4.60
2010,01,23,09,23,4.60
2010,01,23,09,24,4.70
2010,01,23,09,25,4.70
2010,01,23,09,26,4.80
2010,01,23,09,27,4.90
2010,01,23,09,28,5.00
2010,01,23,09,29,5.10
2010,01,23,09,30,5.20
2010,01,23,09,31,5.20
2010,01,23,09,32,5.30
2010,01,23,09,33,5.30
2010,01,23,09,34,5.40
2010,01,23,09,35,5.40
2010,01,23,09,36,5.50
2010,01,23,09,37,5.50
2010,01,23,09,38,5.60
2010,01,23,09,39,5.60
2010,01,23,09,40,5.60
2010,01,23,09,41,5.70
2010,01,23,09,42,5.70
2010,01,23,09,43,5.70
2010,01,23,09,44,5.80
2010,01,23,09,45,5.80
2010,01,23,09,46,5.90
2010,01,23,09,47,5.90
2010,01,23,09,48,6.00
2010,01,23,09,49,6.00
2010,01,23,09,50,6.10
2010,01,23,09,51,6.10
2010,01,23,09,52,6.20
2010,01,23,09,53,6.20
2010,01,23,09,54,6.20
2010,01,23,09,55,6.20
2010,01,23,09,56,6.30
2010,01,23,09,57,6.40
2010,01,23,09,58,6.50
2010,01,23,09,59,6.60
2010,01,23,10,00,6.60
2010,01,23,10,01,6.70
2010,01,23,10,02,6.70
2010,01,23,10,03,6.70
2010,01,23,10,04,6.80
2010,01,23,10,05,6.80
2010,01,23,10,06,6.90
2010,01,23,10,07,6.90
2010,01,23,10,08,7.00
2010,01,23,10,09,7.00
2010,01,23,10,10,7.10
2010,01,23,10,11,7.20
2010,01,23,10,12,7.30
2010,01,23,10,13,7.30
2010,01,23,10,14,7.30
2010,01,23,10,15,7.30
2010,01,23,10,16,7.30
2010,01,23,10,17,7.30
2010,01,23,10,18,7.30
2010,01,23,10,19,7.30
2010,01,23,10,20,7.30
2010,01,23,10,21,7.40
2010,01,23,10,22,7.40
2010,01,23,10,23,7.50
2010,01,23,10,24,7.50
2010,01,23,10,25,7.50
2010,01,23,10,26,7.40
2010,01,23,10,27,7.40
2010,01,23,10,28,7.50
2010,01,23,10,29,7.50
2010,01,23,10,30,7.50
2010,01,23,10,31,7.60
2010,01,23,10,32,7.60
2010,01,23,10,33,7.60
2010,01,23,10,34,7.50
2010,01,23,10,35,7.50
2010,01,23,10,36,7.50
2010,01,23,10,37,7.50
2010,01,23,10,38,7.50
2010,01,23,10,39,7.40
2010,01,23,10,40,7.30
2010,01,23,10,41,7.30
2010,01,23,10,42,7.30
2010,01,23,10,43,7.30
2010,01,23,10,44,7.40
2010,01,23,10,45,7.40
2010,01,23,10,46,7.50
2010,01,23,10,47,7.50
2010,01,23,10,48,7.60
2010,01,23,10,49,7.60
2010,01,23,10,50,7.60
2010,01,23,10,51,7.70
2010,01,23,10,52,7.80
2010,01,23,10,53,7.80
2010,01,23,10,54,7.90
2010,01,23,10,55,8.00
2010,01,23,10,56,8.00
2010,01,23,10,57,8.20
2010,01,23,10,58,8.30
2010,01,23,10,59,8.40
2010,01,23,11,00,8.60
2010,01,23,11,01,8.70
2010,01,23,11,02,8.90
2010,01,23,11,03,9.10
2010,01,23,11,04,9.20
2010,01,23,11,05,9.30
2010,01,23,11,06,9.50
2010,01,23,11,07,9.60
2010,01,23,11,08,9.70
2010,01,23,11,09,9.90
2010,01,23,11,10,10.00
2010,01,23,11,11,10.20
2010,01,23,11,12,10.30
2010,01,23,11,13,10.40
2010,01,23,11,14,10.40
2010,01,23,11,15,10.40
2010,01,23,11,16,10.40
2010,01,23,11,17,10.40
2010,01,23,11,18,10.40
2010,01,23,11,19,10.30
2010,01,23,11,20,10.30
2010,01,23,11,21,10.20
2010,01,23,11,22,10.10
2010,01,23,11,23,10.10
2010,01,23,11,24,10.10
2010,01,23,11,25,10.00
2010,01,23,11,26,10.00
2010,01,23,11,27,10.10
2010,01,23,11,28,10.20
2010,01,23,11,29,10.20
2010,01,23,11,30,10.10
2010,01,23,11,31,10.10
2010,01,23,11,32,10.20
2010,01,23,11,33,10.30
2010,01,23,11,34,10.30
2010,01,23,11,35,10.30
2010,01,23,11,36,10.40
2010,01,23,11,37,10.40
2010,01,23,11,38,10.40
2010,01,23,11,39,10.50
2010,01,23,11,40,10.60
2010,01,23,11,41,10.60
2010,01,23,11,42,10.70
2010,01,23,11,43,10.70
2010,01,23,11,44,10.80
2010,01,23,11,45,10.80
2010,01,23,11,46,10.80
2010,01,23,11,47,10.70
2010,01,23,11,48,10.70
2010,01,23,11,49,10.70
2010,01,23,11,50,10.70
2010,01,23,11,51,10.70
2010,01,23,11,52,10.70
2010,01,23,11,53,10.70
2010,01,23,11,54,10.70
2010,01,23,11,55,10.70
2010,01,23,11,56,10.70
2010,01,23,11,57,10.70
2010,01,23,11,58,10.70
2010,01,23,11,59,10.70
2010,01,23,12,00,10.60
2010,01,23,12,01,10.40
2010,01,23,12,02,10.40
2010,01,23,12,03,10.30
2010,01,23,12,04,10.30
2010,01,23,12,05,10.30
2010,01,23,12,06,10.30
2010,01,23,12,07,10.20
2010,01,23,12,08,10.20
2010,01,23,12,09,10.10
2010,01,23,12,10,10.10
2010,01,23,12,11,10.10
2010,01,23,12,12,10.10
2010,01,23,12,13,10.20
2010,01,23,12,14,10.20
2010,01,23,12,15,10.20
2010,01,23,12,16,10.30
2010,01,23,12,17,10.30
2010,01,23,12,18,10.30
2010,01,23,12,19,10.30
2010,01,23,12,20,10.20
2010,01,23,12,21,10.30
2010,01,23,12,22,10.30
2010,01,23,12,23,10.40
2010,01,23,12,24,10.40
2010,01,23,12,25,10.40
2010,01,23,12,26,10.40
2010,01,23,12,27,10.40
2010,01,23,12,28,10.40
2010,01,23,12,29,10.30
2010,01,23,12,30,10.30
2010,01,23,12,31,10.30
2010,01,23,12,32,10.30
2010,01,23,12,33,10.20
2010,01,23,12,34,10.20
2010,01,23,12,35,10.20
2010,01,23,12,36,10.10
2010,01,23,12,37,10.10
2010,01,23,12,38,10.10
2010,01,23,12,39,10.10
2010,01,23,12,40,10.10
2010,01,23,12,41,10.10
2010,01,23,12,42,10.10
2010,01,23,12,43,10.10
2010,01,23,12,44,10.10
2010,01,23,12,45,10.10
2010,01,23,12,46,10.20
2010,01,23,12,47,10.30
2010,01,23,12,48,10.30
2010,01,23,12,49,10.40
2010,01,23,12,50,10.40
2010,01,23,12,51,10.50
2010,01,23,12,52,10.60
2010,01,23,12,53,10.70
2010,01,23,12,54,10.70
2010,01,23,12,55,10.80
2010,01,23,12,56,10.90
2010,01,23,12,57,10.90
2010,01,23,12,58,10.90
2010,01,23,12,59,10.90
2010,01,23,13,00,10.90
2010,01,23,13,01,10.90
2010,01,23,13,02,10.90
2010,01,23,13,03,10.90
2010,01,23,13,04,10.90
2010,01,23,13,05,10.90
2010,01,23,13,06,10.90
2010,01,23,13,07,10.90
2010,01,23,13,08,10.90
2010,01,23,13,09,10.90
2010,01,23,13,10,10.90
2010,01,23,13,11,10.90
2010,01,23,13,12,11.10
2010,01,23,13,13,11.10
2010,01,23,13,14,11.20
2010,01,23,13,15,11.20
2010,01,23,13,16,11.30
2010,01,23,13,17,11.30
2010,01,23,13,18,11.30
2010,01,23,13,19,11.40
2010,01,23,13,20,11.40
2010,01,23,13,21,11.40
2010,01,23,13,22,11.40
2010,01,23,13,23,11.40
2010,01,23,13,24,11.40
2010,01,23,13,25,11.40
2010,01,23,13,26,11.40
2010,01,23,13,27,11.40
2010,01,23,13,28,11.20
2010,01,23,13,29,11.20
2010,01,23,13,30,11.20
2010,01,23,13,31,11.10
2010,01,23,13,32,11.10
2010,01,23,13,33,11.00
2010,01,23,13,34,10.90
2010,01,23,13,35,10.90
2010,01,23,13,36,10.90
2010,01,23,13,37,10.90
2010,01,23,13,38,11.00
2010,01,23,13,39,11.10
2010,01,23,13,40,11.10
2010,01,23,13,41,11.10
2010,01,23,13,42,11.10
2010,01,23,13,43,11.20
2010,01,23,13,44,11.20
2010,01,23,13,45,11.30
2010,01,23,13,46,11.30
2010,01,23,13,47,11.40
2010,01,23,13,48,11.30
2010,01,23,13,49,11.30
2010,01,23,13,50,11.10
2010,01,23,13,51,11.00
2010,01,23,13,52,10.80
2010,01,23,13,53,10.60
2010,01,23,13,54,10.50
2010,01,23,13,55,10.40
2010,01,23,13,56,10.30
2010,01,23,13,57,10.20
2010,01,23,13,58,10.10
2010,01,23,13,59,10.10
2010,01,23,14,00,10.10
2010,01,23,14,01,10.10
2010,01,23,14,02,10.10
2010,01,23,14,03,10.10
2010,01,23,14,04,10.00
2010,01,23,14,05,9.90
2010,01,23,14,06,9.90
2010,01,23,14,07,9.90
2010,01,23,14,08,9.80
2010,01,23,14,09,9.80
2010,01,23,14,10,9.70
2010,01,23,14,11,9.70
2010,01,23,14,12,9.70
2010,01,23,14,13,9.70
2010,01,23,14,14,9.70
2010,01,23,14,15,9.70
2010,01,23,14,16,9.70
2010,01,23,14,17,9.70
2010,01,23,14,18,9.70
2010,01,23,14,19,9.70
2010,01,23,14,20,9.70
2010,01,23,14,21,9.70
2010,01,23,14,22,9.80
2010,01,23,14,23,9.90
2010,01,23,14,24,9.90
2010,01,23,14,25,10.00
2010,01,23,14,26,10.10
2010,01,23,14,27,10.20
2010,01,23,14,28,10.40
2010,01,23,14,29,10.50
2010,01,23,14,30,10.60
2010,01,23,14,31,10.70
2010,01,23,14,32,10.80
2010,01,23,14,33,10.90
2010,01,23,14,34,11.00
2010,01,23,14,35,11.10
2010,01,23,14,36,11.10
2010,01,23,14,37,11.20
2010,01,23,14,38,11.20
2010,01,23,14,39,11.20
2010,01,23,14,40,11.20
2010,01,23,14,41,11.30
2010,01,23,14,42,11.30
2010,01,23,14,43,11.40
2010,01,23,14,44,11.40
2010,01,23,14,45,11.40
2010,01,23,14,46,11.40
2010,01,23,14,47,11.50
2010,01,23,14,48,11.60
2010,01,23,14,49,11.60
2010,01,23,14,50,11.60
2010,01,23,14,51,11.60
2010,01,23,14,52,11.60
2010,01,23,14,53,11.60
2010,01,23,14,54,11.70
2010,01,23,14,55,11.70
2010,01,23,14,56,11.80
2010,01,23,14,57,11.80
2010,01,23,14,58,11.90
2010,01,23,14,59,11.90
2010,01,23,15,00,12.00
2010,01,23,15,01,12.00
2010,01,23,15,02,12.00
2010,01,23,15,03,11.90
2010,01,23,15,04,11.90
2010,01,23,15,05,11.90
2010,01,23,15,06,11.90
2010,01,23,15,07,11.80
2010,01,23,15,08,11.80
2010,01,23,15,09,11.70
2010,01,23,15,10,11.70
2010,01,23,15,11,11.60
2010,01,23,15,12,11.60
2010,01,23,15,13,11.50
2010,01,23,15,14,11.40
2010,01,23,15,15,11.40
2010,01,23,15,16,11.40
2010,01,23,15,17,11.30
2010,01,23,15,18,11.40
2010,01,23,15,19,11.40
2010,01,23,15,20,11.40
2010,01,23,15,21,11.40
2010,01,23,15,22,11.40
2010,01,23,15,23,11.40
2010,01,23,15,24,11.40
2010,01,23,15,25,11.30
2010,01,23,15,26,11.30
2010,01,23,15,27,11.20
2010,01,23,15,28,11.10
2010,01,23,15,29,11.00
2010,01,23,15,30,10.90
2010,01,23,15,31,10.90
2010,01,23,15,32,10.90
2010,01,23,15,33,10.80
2010,01,23,15,34,10.80
2010,01,23,15,35,10.80
2010,01,23,15,36,10.80
2010,01,23,15,37,10.80
2010,01,23,15,38,10.80
2010,01,23,15,39,10.80
2010,01,23,15,40,10.70
2010,01,23,15,41,10.70
2010,01,23,15,42,10.60
2010,01,23,15,43,10.60
2010,01,23,15,44,10.50
2010,01,23,15,45,10.40
2010,01,23,15,46,10.40
2010,01,23,15,47,10.40
2010,01,23,15,48,10.40
2010,01,23,15,49,10.40
2010,01,23,15,50,10.40
2010,01,23,15,51,10.30
2010,01,23,15,52,10.30
2010,01,23,15,53,10.20
2010,01,23,15,54,10.20
2010,01,23,15,55,10.10
2010,01,23,15,56,10.00
2010,01,23,15,57,9.90
2010,01,23,15,58,9.80
2010,01,23,15,59,9.70
2010,01,23,16,00,9.70
2010,01,23,16,01,9.60
2010,01,23,16,02,9.50
2010,01,23,16,03,9.50
2010,01,23,16,04,9.40
2010,01,23,16,05,9.30
2010,01,23,16,06,9.30
2010,01,23,16,07,9.20
2010,01,23,16,08,9.20
2010,01,23,16,09,9.20
2010,01,23,16,10,9.10
2010,01,23,16,11,9.10
2010,01,23,16,12,9.00
2010,01,23,16,13,9.00
2010,01,23,16,14,8.90
2010,01,23,16,15,8.90
2010,01,23,16,16,8.90
2010,01,23,16,17,8.90
2010,01,23,16,18,8.80
2010,01,23,16,19,8.80
2010,01,23,16,20,8.80
2010,01,23,16,21,8.80
2010,01,23,16,22,8.80
2010,01,23,16,23,8.70
2010,01,23,16,24,8.70
2010,01,23,16,25,8.70
2010,01,23,16,26,8.70
2010,01,23,16,27,8.70
2010,01,23,16,28,8.70
2010,01,23,16,29,8.70
2010,01,23,16,30,8.70
2010,01,23,16,31,8.70
2010,01,23,16,32,8.70
2010,01,23,16,33,8.70
2010,01,23,16,34,8.70
2010,01,23,16,35,8.70
2010,01,23,16,36,8.60
2010,01,23,16,37,8.60
2010,01,23,16,38,8.60
2010,01,23,16,39,8.50
2010,01,23,16,40,8.50
2010,01,23,16,41,8.50
2010,01,23,16,42,8.50
2010,01,23,16,43,8.50
2010,01,23,16,44,8.50
2010,01,23,16,45,8.50
2010,01,23,16,46,8.40
2010,01,23,16,47,8.40
2010,01,23,16,48,8.40
2010,01,23,16,49,8.30
2010,01,23,16,50,8.30
2010,01,23,16,51,8.40
2010,01,23,16,52,8.40
2010,01,23,16,53,8.40
2010,01,23,16,54,8.40
2010,01,23,16,55,8.50
2010,01,23,16,56,8.50
2010,01,23,16,57,8.50
2010,01,23,16,58,8.50
2010,01,23,16,59,8.50
2010,01,23,17,00,8.50
2010,01,23,17,01,8.50
2010,01,23,17,02,8.50
2010,01,23,17,03,8.50
2010,01,23,17,04,8.50
2010,01,23,17,05,8.50
2010,01,23,17,06,8.50
2010,01,23,17,07,8.50
2010,01,23,17,08,8.50
2010,01,23,17,09,8.60
2010,01,23,17,10,8.60
2010,01,23,17,11,8.60
2010,01,23,17,12,8.50
2010,01,23,17,13,8.50
2010,01,23,17,14,8.50
2010,01,23,17,15,8.50
2010,01,23,17,16,8.50
2010,01,23,17,17,8.50
2010,01,23,17,18,8.50
2010,01,23,17,19,8.50
2010,01,23,17,20,8.50
2010,01,23,17,21,8.50
2010,01,23,17,22,8.50
2010,01,23,17,23,8.50
2010,01,23,17,24,8.50
2010,01,23,17,25,8.50
2010,01,23,17,26,8.50
2010,01,23,17,27,8.50
2010,01,23,17,28,8.50
2010,01,23,17,29,8.40
2010,01,23,17,30,8.40
2010,01,23,17,31,8.40
2010,01,23,17,32,8.40
2010,01,23,17,33,8.40
2010,01,23,17,34,8.40
2010,01,23,17,35,8.40
2010,01,23,17,36,8.40
2010,01,23,17,37,8.40
2010,01,23,17,38,8.40
2010,01,23,17,39,8.40
2010,01,23,17,40,8.30
2010,01,23,17,41,8.30
2010,01,23,17,42,8.30
2010,01,23,17,43,8.30
2010,01,23,17,44,8.30
2010,01,23,17,45,8.30
2010,01,23,17,46,8.30
2010,01,23,17,47,8.30
2010,01,23,17,48,8.30
2010,01,23,17,49,8.30
2010,01,23,17,50,8.30
2010,01,23,17,51,8.30
2010,01,23,17,52,8.30
2010,01,23,17,53,8.30
2010,01,23,17,54,8.30